GFSSGP_250_spd_009.txt.gz
Wind_Speed
30 28 28 24 21 20 18 17 15 15 13 14 14 16 19 21 24 26 29 33 37 38 38 38 39 39 40 40 41 42 42 44 46 46 47 46 45 44 43 42 42 43 45 44 46 47 46 47 47
30 28 28 26 23 20 20 18 15 17 16 17 18 21 21 25 27 29 33 36 39 40 39 39 41 41 42 44 46 48 48 48 48 48 47 46 47 45 44 45 45 45 46 47 47 48 48 49 49
32 29 28 27 23 22 22 21 17 19 18 18 20 23 24 28 30 33 35 37 39 38 40 40 41 43 45 47 49 51 53 53 52 51 50 49 48 47 45 44 44 46 48 48 49 49 48 48 49
34 30 28 25 23 25 25 23 21 21 21 23 23 24 27 29 33 36 37 40 41 40 41 42 44 46 48 50 53 55 56 58 56 55 53 51 50 48 46 44 44 46 47 48 50 50 50 49 50
34 32 30 26 29 29 28 26 25 23 24 23 24 27 30 33 34 37 40 43 42 41 42 44 47 49 51 54 56 58 59 58 58 55 52 48 46 44 42 41 39 40 42 43 46 48 51 51 52
35 34 30 28 30 32 30 28 28 26 25 26 28 29 32 35 36 41 41 43 44 43 45 46 48 51 53 56 58 60 59 57 54 50 47 43 39 34 32 30 30 30 30 33 36 41 44 48 51
38 35 33 31 30 29 28 29 31 30 30 29 28 31 34 36 39 41 42 45 45 46 47 48 51 53 55 58 59 60 59 55 48 43 38 34 29 23 24 24 23 23 24 25 26 29 33 38 43
39 37 35 34 34 32 35 36 35 33 30 30 31 34 36 38 41 42 43 46 46 47 49 50 53 54 56 58 60 60 60 55 47 41 35 31 26 25 25 27 27 26 26 24 24 25 25 28 32
40 43 40 38 38 35 37 37 36 34 33 34 35 37 39 41 42 44 46 46 47 49 51 53 54 55 57 58 60 59 59 54 45 42 36 33 29 28 29 30 30 30 31 32 32 33 33 32 32
44 47 46 44 40 37 40 39 38 37 38 37 38 40 41 42 44 46 46 47 49 51 53 53 54 55 57 59 60 60 60 56 46 42 37 33 31 30 32 33 34 34 34 35 35 36 37 38 37
45 44 40 40 39 40 40 41 42 42 42 41 42 41 44 44 46 46 48 51 51 53 53 55 54 56 58 61 62 63 62 58 48 44 37 33 32 29 32 35 37 37 37 37 36 38 39 40 42
42 43 45 40 40 40 41 44 44 45 45 44 44 43 45 48 48 48 49 52 54 55 55 55 56 58 60 63 64 65 65 61 51 45 35 33 33 31 34 38 39 37 35 33 33 34 35 36 39
50 47 47 45 46 46 45 46 45 48 49 44 45 48 49 48 50 52 52 53 55 57 57 57 59 62 63 64 66 66 65 62 53 46 36 34 33 34 37 40 39 39 36 35 35 37 38 39 38
52 50 51 50 51 52 48 47 47 52 46 47 49 50 50 51 53 54 55 56 57 57 58 60 61 64 66 67 68 65 65 61 55 48 38 37 35 35 39 41 41 39 38 39 39 41 41 41 42
49 51 54 56 53 50 50 48 52 51 50 51 51 53 52 54 55 57 58 58 59 60 61 62 64 66 68 69 70 67 66 63 55 50 41 40 37 37 40 42 42 41 40 41 41 43 43 43 45
49 49 50 55 53 52 53 51 57 54 54 54 54 54 53 55 57 60 60 61 62 63 64 66 69 69 70 73 72 68 68 64 57 53 43 42 38 38 41 43 44 43 42 43 44 45 45 46 50
50 53 53 55 55 54 54 53 58 55 54 55 56 57 57 59 61 62 62 63 66 68 68 69 71 71 73 76 72 71 69 63 59 54 45 42 40 40 44 45 46 45 45 46 46 46 46 47 52
52 52 56 57 62 60 58 56 61 60 58 58 60 61 61 62 66 64 63 65 69 71 72 72 72 73 76 75 74 74 69 63 61 56 47 43 41 42 46 48 48 46 46 47 47 47 47 49 53
57 58 58 61 65 66 64 61 63 63 58 62 64 64 64 66 69 66 67 68 71 74 75 74 75 77 76 78 78 75 70 65 64 56 49 45 42 44 48 49 49 48 49 47 48 48 50 51 52
60 61 63 66 71 67 66 60 62 66 63 63 65 67 68 68 69 70 71 71 73 78 79 77 76 77 79 82 79 77 71 68 66 56 50 46 43 45 49 50 51 50 51 50 51 51 53 58 58
63 64 69 70 74 70 70 62 63 66 67 68 70 74 73 71 71 72 74 75 77 79 79 77 78 80 81 85 81 75 73 73 67 58 51 47 45 48 50 51 52 53 54 54 56 55 58 61 63
67 73 73 73 75 72 78 66 64 65 66 74 78 79 78 78 79 80 80 80 79 79 78 79 81 81 85 87 80 78 77 73 62 55 47 46 47 50 51 53 54 55 56 58 60 60 63 64 66
74 81 81 82 83 84 77 83 59 67 69 76 82 82 82 84 85 85 82 81 80 82 82 82 83 86 89 85 81 78 73 63 54 45 42 46 47 51 52 54 56 58 59 61 63 65 66 66 70
80 84 87 89 90 90 80 91 70 73 73 78 85 88 87 87 84 83 84 86 86 84 84 85 90 92 87 83 75 70 62 54 47 42 45 48 49 52 53 56 58 59 61 63 65 66 67 69 74
91 95 97 96 97 92 93 98 75 75 79 82 82 88 87 87 86 85 86 87 87 89 89 91 88 85 80 70 70 63 55 49 43 44 46 49 51 53 55 57 60 60 62 64 67 69 70 73 78
81 86 92 99 99 96 97 88 76 82 85 86 88 92 90 91 90 89 90 91 93 94 91 83 82 75 66 68 65 55 47 43 43 45 48 50 53 55 57 60 62 62 64 67 70 71 73 76 83
89 89 93 102 98 103 92 85 82 81 83 88 92 96 98 99 97 96 95 93 91 85 77 71 71 73 65 65 63 49 44 43 45 47 52 53 54 57 58 61 63 64 66 69 72 74 76 81 89
99 99 103 107 109 110 99 95 82 81 84 89 90 90 92 93 92 90 89 86 83 77 73 73 73 71 62 60 58 47 45 45 47 52 55 55 56 58 61 63 65 66 69 71 74 75 80 85 93
103 107 111 117 119 118 112 93 86 86 85 88 91 92 94 96 95 93 91 88 82 76 74 74 74 70 61 58 57 52 48 50 52 54 57 56 58 61 63 64 66 68 70 74 75 77 82 89 94
109 116 121 126 122 126 123 106 99 97 96 94 93 92 94 99 97 95 91 89 86 81 76 73 71 68 60 59 57 55 54 55 55 56 58 58 60 62 64 66 68 69 72 75 76 77 84 92 92

GFSSGP_250_spd_012.txt.gz
Wind_Speed
32 27 26 23 22 21 19 18 17 16 12 14 15 15 16 18 22 25 28 31 33 34 37 40 41 39 39 40 41 42 43 43 43 44 44 44 43 42 43 43 44 44 45 45 46 46 46 46 47
34 30 26 26 26 24 22 17 16 18 16 18 17 18 20 21 25 28 31 33 35 36 40 42 41 40 41 43 43 44 47 50 49 48 45 43 43 42 41 40 42 42 43 45 46 48 49 48 48
35 34 28 28 28 25 22 20 21 20 20 21 20 21 23 24 28 29 32 33 36 39 42 44 42 42 44 46 48 49 51 53 53 53 51 47 44 42 40 40 39 38 37 41 45 48 49 49 50
34 33 31 28 25 25 23 25 24 23 23 23 23 24 25 27 29 31 33 35 37 42 42 45 44 45 47 49 51 53 55 57 57 57 55 51 47 43 41 38 35 33 33 35 38 42 47 51 51
35 35 32 31 26 26 26 27 28 28 25 26 26 27 28 30 30 32 36 38 40 43 44 46 46 47 49 50 53 54 56 56 58 56 54 49 45 41 35 30 26 24 25 26 29 32 35 40 45
38 34 33 31 30 30 30 30 30 30 28 29 29 30 31 33 33 34 37 39 42 42 45 48 48 49 51 52 55 56 58 57 56 56 53 48 43 37 32 27 23 21 20 20 20 22 24 26 30
38 37 35 32 34 32 31 31 31 32 30 30 31 33 34 34 36 38 38 41 42 44 47 48 49 51 53 54 57 56 58 58 56 56 54 49 43 35 31 29 26 22 23 23 21 21 20 22 24
38 40 38 37 36 34 33 32 31 31 33 34 35 35 36 36 37 39 41 42 42 45 48 49 50 52 54 56 57 58 60 60 60 59 55 51 47 40 30 29 27 25 26 27 27 27 26 26 25
40 40 40 40 39 34 36 34 35 36 37 37 37 36 38 41 41 42 44 44 45 48 50 51 51 54 55 57 58 59 62 63 62 60 55 52 50 42 30 29 28 27 30 33 33 33 32 31 30
42 41 40 41 40 38 39 39 40 40 40 39 39 40 41 43 44 45 45 46 47 49 50 52 53 55 56 58 59 60 63 65 63 62 57 51 47 41 31 30 29 29 32 35 35 34 33 33 33
43 43 41 43 41 43 45 46 46 45 43 40 40 42 44 43 47 49 49 48 50 50 52 52 55 57 57 60 61 61 63 65 65 64 58 50 45 38 33 32 31 32 33 35 35 33 31 32 32
44 42 43 43 45 44 39 41 43 44 41 42 44 46 46 46 48 49 49 50 52 52 53 54 56 57 60 61 62 64 64 66 67 64 59 50 45 39 33 33 32 33 34 35 35 32 31 31 31
46 47 46 44 40 42 39 39 42 46 45 46 46 48 48 46 49 50 51 54 53 54 55 55 58 58 60 63 64 66 65 67 69 65 61 53 46 43 35 34 35 34 35 36 37 36 34 34 33
48 49 50 51 51 50 46 45 47 52 47 49 48 50 50 51 53 53 54 55 57 56 57 58 60 60 61 63 65 68 68 70 70 67 64 58 49 45 40 36 36 35 36 38 40 39 38 37 38
49 49 51 54 54 54 52 49 53 55 52 50 51 50 52 55 56 58 57 57 57 58 60 61 62 61 63 64 67 69 70 71 69 68 64 61 53 50 44 38 37 35 37 40 42 41 40 41 41
48 49 50 55 55 52 51 49 60 56 54 56 54 54 55 56 57 61 60 60 61 60 60 62 63 64 65 66 70 70 72 71 70 69 66 62 56 55 48 41 39 37 38 42 43 42 42 43 43
50 50 50 51 52 52 51 49 62 57 55 57 57 57 56 57 58 62 61 62 62 61 62 62 62 64 67 68 71 72 72 70 71 70 69 63 60 58 52 44 41 38 39 43 44 44 44 44 46
47 47 50 54 61 56 53 51 60 60 57 55 57 58 59 61 64 63 62 64 65 65 66 66 66 67 69 71 72 72 72 72 73 73 72 67 65 61 54 47 42 40 41 44 46 46 46 46 48
53 53 54 59 63 59 57 53 56 62 56 58 61 63 63 63 67 65 66 66 66 67 68 69 70 72 72 72 73 72 74 74 74 77 76 73 70 64 55 48 43 41 42 46 48 49 49 49 50
57 58 59 62 67 61 60 52 54 58 58 60 62 63 67 68 70 69 70 69 68 69 70 73 74 74 74 75 73 74 76 75 77 80 78 76 70 62 54 47 42 41 43 48 49 51 51 52 52
65 66 69 69 72 69 69 59 62 62 63 63 65 68 69 71 73 72 71 71 70 71 75 76 76 77 77 75 76 77 75 76 80 81 78 72 64 55 52 42 39 41 46 48 49 52 54 55 54
68 76 76 78 80 78 79 68 64 64 64 67 69 74 75 76 76 77 77 76 76 76 77 78 80 79 76 78 79 76 76 79 82 79 74 66 59 53 43 37 39 43 47 49 50 52 54 56 57
74 78 81 83 85 84 79 86 63 71 73 76 80 82 83 84 85 84 84 84 82 81 81 81 81 80 80 80 79 78 79 82 80 74 66 62 56 50 41 39 43 46 48 51 53 55 56 57 59
82 84 86 89 92 90 81 96 71 76 77 81 85 89 93 96 94 93 94 94 91 88 85 85 83 82 82 82 80 81 83 83 73 67 62 60 54 48 42 42 45 47 51 52 55 57 58 61 63
83 87 90 94 97 94 96 102 77 79 83 86 87 88 93 97 96 94 94 95 94 93 93 90 86 84 84 83 84 86 84 77 65 64 62 56 53 45 43 45 46 49 52 54 57 60 61 64 66
84 88 93 98 95 95 97 91 81 86 84 86 88 89 90 97 97 96 95 98 98 96 94 92 91 90 88 86 87 82 76 68 63 62 58 54 50 44 47 48 49 52 55 56 59 62 64 67 69
92 97 103 108 97 104 90 88 84 85 87 87 89 91 93 95 93 93 95 96 96 95 95 93 91 91 90 85 80 78 75 68 62 60 56 53 50 48 49 50 52 54 57 58 61 64 67 70 72
96 97 102 108 114 112 102 99 90 92 95 93 93 94 97 96 93 96 101 100 100 97 95 93 90 88 86 81 79 78 75 69 64 61 55 54 53 51 50 52 54 56 58 60 63 67 69 72 75
100 104 113 117 118 125 118 101 97 99 99 98 98 100 103 105 98 100 102 100 99 98 94 90 87 87 85 82 78 78 76 69 64 60 57 54 54 54 55 56 57 57 59 62 65 69 71 74 77
110 113 118 122 125 132 136 120 98 101 102 103 100 99 101 106 110 105 103 105 103 98 94 87 88 85 83 81 79 78 76 68 62 58 55 56 57 57 57 58 58 59 61 64 67 70 71 75 78

GFSSGP_250_spd_015.txt.gz
Wind_Speed
29 29 26 22 22 20 17 18 17 17 15 15 15 15 16 17 18 20 23 26 29 31 33 35 40 41 44 42 42 42 42 41 41 43 43 43 39 38 36 35 33 33 35 42 43 44 46 47 48
32 31 29 27 26 24 24 22 18 17 15 18 18 19 19 20 22 23 26 29 30 32 34 38 42 43 46 45 44 45 47 47 47 48 48 46 44 41 37 34 33 33 32 31 37 41 44 47 48
36 35 34 29 28 28 26 24 20 20 19 21 22 22 21 23 25 26 29 31 32 32 35 40 42 46 48 48 48 48 50 52 53 52 52 51 47 43 39 36 32 31 30 29 26 31 37 42 47
39 39 38 33 29 29 26 26 23 23 23 25 24 25 26 26 29 28 31 33 33 34 35 41 42 46 49 48 49 50 53 54 56 55 57 56 52 46 39 35 29 28 25 24 23 21 24 30 38
39 39 36 35 29 29 29 27 24 26 26 28 29 28 30 30 31 31 33 35 34 34 37 42 43 47 48 49 49 51 54 57 57 57 59 60 56 48 43 37 30 25 21 19 19 20 20 18 21
40 39 38 35 33 32 31 28 28 28 28 30 31 31 32 32 33 34 34 35 36 37 41 41 45 48 48 50 50 52 54 57 58 58 58 59 58 50 42 41 31 25 23 18 18 19 20 21 20
41 39 38 37 34 34 32 30 31 32 32 32 34 33 32 34 35 36 36 36 39 39 41 42 45 47 49 49 50 52 54 56 58 59 58 58 58 54 43 38 33 24 23 21 19 20 20 21 22
42 41 39 37 34 35 33 32 32 33 32 33 34 34 34 36 40 38 38 39 41 41 42 46 46 47 49 49 50 51 53 56 58 59 59 59 56 53 46 38 30 25 24 24 22 24 25 24 25
42 43 42 38 37 37 37 35 33 33 34 34 36 39 41 41 41 40 40 41 43 43 45 47 47 47 50 50 51 52 54 56 58 58 59 59 57 50 47 41 31 26 26 26 26 25 25 26 25
43 44 42 41 39 39 40 39 39 36 36 36 39 42 43 44 43 42 43 44 44 46 47 47 49 49 52 51 52 52 54 56 58 58 60 60 57 50 44 44 35 29 28 28 28 27 26 25 25
44 44 43 43 42 38 42 43 44 43 41 41 45 48 49 46 43 44 45 46 46 48 48 48 50 51 53 53 53 53 54 57 59 59 60 60 57 51 45 43 41 34 31 31 30 29 27 26 26
45 43 44 44 43 41 43 46 46 48 44 47 47 47 48 43 46 48 49 48 49 50 50 51 52 52 55 56 54 55 55 58 60 60 60 60 57 52 48 42 44 39 35 33 31 30 28 28 28
43 44 47 47 46 43 43 47 50 54 49 43 39 44 46 47 50 50 51 52 50 53 54 53 53 54 55 56 54 56 57 60 62 62 62 59 58 54 49 45 44 44 38 36 34 32 31 30 30
45 45 46 49 47 46 45 48 46 50 40 42 45 47 48 50 52 52 53 53 54 54 54 52 54 55 56 56 56 56 59 62 62 63 62 60 61 58 53 50 49 46 41 37 36 34 33 33 33
44 45 45 49 50 50 49 48 53 53 48 48 53 54 54 57 56 56 55 56 55 55 53 53 55 57 58 58 57 58 61 63 65 64 62 62 63 61 60 58 55 51 44 39 37 36 34 34 35
44 45 47 50 50 46 44 48 54 50 48 49 52 54 56 56 55 58 59 60 59 57 57 57 59 59 59 59 58 60 62 64 66 67 64 65 64 64 65 63 61 55 46 40 38 38 35 34 35
45 43 44 49 51 49 48 43 60 53 49 49 50 52 53 55 57 63 61 61 61 61 61 60 60 61 61 60 60 61 63 65 67 68 65 66 65 66 68 67 64 57 47 42 39 39 38 36 37
50 49 49 51 55 52 49 45 54 57 52 51 54 57 58 59 63 65 62 63 63 63 62 61 61 62 62 61 61 63 65 66 68 69 66 67 66 68 71 71 62 57 49 44 40 39 39 37 39
58 58 58 63 65 57 55 47 47 56 53 55 59 60 61 61 67 69 68 67 65 64 63 62 61 65 64 63 65 67 68 69 71 69 67 67 67 70 74 70 59 55 52 48 41 39 38 38 41
64 65 66 66 70 66 64 56 58 59 61 60 62 64 66 67 70 72 71 71 69 68 67 67 67 67 67 67 71 70 71 72 72 70 69 67 68 69 76 66 59 55 53 47 40 38 37 38 42
69 70 73 74 75 74 72 61 62 63 64 69 70 71 73 76 77 78 78 77 76 74 75 75 75 75 77 77 78 75 74 75 73 73 69 68 69 70 75 62 57 55 52 43 39 37 38 40 43
68 75 75 76 78 77 79 70 65 68 70 73 76 78 79 81 82 85 86 86 85 84 82 81 83 82 81 81 80 78 79 78 77 75 71 71 71 73 67 60 58 54 52 44 42 40 43 45 46
71 74 76 79 81 81 80 85 64 72 76 78 81 82 84 88 89 91 92 91 90 89 87 86 85 84 85 84 82 81 79 81 79 75 74 72 72 72 63 59 56 53 52 46 44 42 45 48 49
73 76 79 82 84 83 86 90 65 75 77 80 86 90 92 98 99 98 96 95 94 94 92 89 86 85 85 85 82 82 83 82 78 76 76 76 74 66 62 59 55 54 51 47 44 46 47 50 52
76 79 81 81 83 82 85 86 70 74 79 83 86 89 94 98 98 100 101 99 98 96 96 94 92 91 91 87 85 85 84 81 79 79 77 73 67 65 62 59 54 53 49 48 47 50 51 52 54
84 90 94 95 93 92 92 88 80 83 90 88 89 90 91 93 96 100 100 101 101 98 95 91 88 88 85 82 80 78 77 76 76 76 74 70 67 64 61 60 55 52 52 52 53 53 53 55 56
85 91 97 105 103 108 99 99 94 95 97 98 98 98 98 97 97 97 99 102 101 96 93 89 88 84 82 81 79 79 80 76 75 74 72 70 68 65 62 60 54 52 51 53 53 54 55 57 57
89 94 100 107 112 114 107 104 100 98 100 99 99 98 98 101 102 103 106 106 106 104 98 95 94 90 89 86 84 81 80 74 71 70 70 68 66 64 62 57 51 51 51 50 51 53 56 58 60
93 98 106 112 118 128 126 111 109 113 110 109 109 108 102 102 105 105 108 108 111 108 104 101 99 97 93 94 93 91 86 80 73 70 70 68 65 62 58 57 53 52 51 52 53 56 58 60 63
106 110 117 124 126 130 138 133 113 115 115 114 110 113 110 113 116 115 112 112 113 115 109 103 104 102 97 98 95 92 85 78 75 74 73 69 67 63 59 58 59 57 56 56 55 56 59 62 65

GFSSGP_250_spd_021.txt.gz
Wind_Speed
26 27 25 25 24 21 20 21 18 17 19 21 20 20 19 19 20 21 22 24 26 27 28 30 32 34 34 37 41 46 47 47 47 45 44 44 44 43 41 40 36 31 25 24 22 20 20 27 37
28 27 28 26 27 26 25 25 22 20 20 20 21 23 23 22 22 24 26 27 29 30 31 31 33 35 36 37 41 47 48 49 48 48 47 47 47 47 47 45 39 32 26 24 23 21 22 21 21
28 29 30 29 29 29 29 28 26 26 25 23 23 26 28 28 27 27 28 30 31 33 33 33 35 36 36 37 41 46 48 47 48 49 48 49 50 50 52 49 44 36 28 25 21 19 20 19 19
31 30 31 33 33 32 32 32 31 30 31 30 27 28 30 31 32 30 31 33 34 34 35 36 36 37 37 38 41 45 46 46 49 49 49 49 51 52 54 52 47 39 33 27 22 18 17 18 17
34 34 32 33 35 35 35 35 35 35 34 36 33 31 33 33 33 32 32 34 36 37 35 36 38 39 38 37 40 44 45 46 47 48 49 49 49 52 54 52 49 43 37 31 24 20 18 18 17
39 37 37 36 36 36 37 38 38 36 36 37 36 36 35 37 35 36 35 36 38 38 37 38 41 40 38 38 39 44 44 46 45 46 48 48 48 50 53 54 51 46 39 34 29 22 19 19 20
44 44 42 40 42 39 40 40 40 39 38 39 39 39 37 39 38 37 37 37 38 38 40 42 43 41 39 38 40 43 45 46 46 46 47 47 48 48 52 52 52 49 40 36 33 29 25 22 22
46 48 47 47 47 45 44 42 42 41 40 43 42 41 40 41 40 40 39 39 38 40 42 45 44 42 40 39 42 41 46 46 45 46 46 46 48 48 51 53 51 49 46 39 35 33 30 27 25
49 52 52 48 47 45 45 45 44 45 44 45 45 43 42 45 44 41 40 41 43 44 47 47 47 43 40 42 42 42 46 47 43 45 46 47 46 49 49 52 52 50 48 45 38 36 32 30 30
50 53 50 50 48 47 46 46 45 47 46 47 46 45 47 48 48 47 46 47 48 51 52 50 47 41 43 44 44 47 48 47 42 43 47 47 47 49 50 50 53 51 51 50 46 44 37 31 29
50 51 51 51 49 48 46 46 48 49 49 47 50 49 51 49 50 51 52 53 54 57 57 49 42 43 46 45 47 49 48 46 45 45 45 46 47 50 51 50 53 52 50 52 50 47 45 38 31
54 53 53 52 52 51 49 48 50 52 50 48 49 50 48 50 51 52 54 55 55 53 49 45 45 46 46 49 49 49 49 48 47 48 47 45 47 51 51 51 53 53 51 52 52 48 48 43 40
57 55 55 55 54 51 50 50 51 53 51 49 52 50 52 54 52 53 55 57 57 53 50 51 49 49 49 51 51 51 50 50 50 50 50 48 48 51 53 53 54 54 52 53 55 50 48 45 42
59 57 56 56 54 53 51 53 51 53 52 54 53 55 55 56 58 56 54 53 54 54 53 52 54 53 53 54 55 53 53 53 53 53 54 52 51 52 56 55 55 54 53 54 56 53 49 46 43
60 59 60 60 58 56 54 56 55 54 55 55 54 57 59 60 62 63 64 62 62 60 58 58 58 58 59 60 58 57 57 56 56 57 56 55 54 55 58 57 53 54 56 55 56 53 50 49 45
60 59 60 60 61 59 57 54 60 57 59 58 60 59 60 62 67 69 71 68 70 69 67 65 65 67 65 63 62 60 59 60 61 61 59 57 56 57 59 57 53 55 57 55 55 53 51 52 47
59 59 59 62 63 61 55 52 64 62 60 59 63 63 64 65 69 73 76 74 75 73 72 70 70 68 68 67 63 63 63 64 65 63 60 57 58 58 59 56 55 57 59 54 56 54 53 52 47
58 57 59 62 66 61 57 54 57 64 61 61 63 65 66 67 70 72 75 75 75 76 74 72 69 68 71 68 65 66 67 66 65 62 59 59 60 61 60 58 58 60 58 56 58 55 54 51 46
55 54 55 61 65 62 63 61 64 67 70 69 69 70 71 72 72 73 74 75 74 77 75 75 74 72 74 73 70 70 69 66 65 63 61 60 62 62 61 60 60 61 59 60 59 56 54 47 44
52 54 58 58 64 64 64 63 67 68 71 76 74 76 77 79 81 82 83 84 83 84 84 82 80 79 76 78 77 76 73 70 69 67 66 64 65 65 63 63 63 61 62 63 59 55 50 46 42
54 55 58 59 63 66 64 64 69 73 74 75 79 80 80 82 84 85 88 88 89 88 88 87 86 84 83 81 82 79 77 74 73 74 72 69 68 67 67 66 64 64 65 63 55 51 48 46 44
57 59 62 64 64 67 70 66 72 76 79 77 79 83 87 89 89 91 91 92 93 92 93 92 91 89 88 86 84 82 83 79 79 79 76 72 70 69 68 66 66 66 63 57 52 51 49 46 45
54 57 59 62 62 62 70 70 76 80 82 80 82 85 89 91 93 95 97 99 100 100 100 99 99 97 96 93 88 86 86 83 82 82 78 76 73 69 67 67 69 63 56 55 54 54 50 47 45
58 61 63 66 69 71 76 76 80 91 88 84 83 87 88 92 97 99 101 102 104 105 106 105 106 105 103 100 96 92 90 91 87 86 83 79 74 70 70 71 66 57 54 52 52 50 51 50 48
60 62 64 67 71 71 77 75 81 93 87 89 90 93 97 100 103 103 105 109 111 111 112 111 110 108 108 105 100 96 93 93 90 87 84 82 78 76 74 69 59 56 54 53 53 53 54 51 48
59 63 67 71 74 73 80 77 83 96 96 94 96 100 102 104 108 111 111 115 119 119 119 119 118 116 115 113 111 105 97 96 95 92 86 83 78 73 70 64 59 57 56 56 57 54 53 52 51
66 67 70 74 75 75 75 81 84 97 100 106 110 113 117 119 116 118 119 120 124 124 125 126 127 124 121 117 114 109 104 100 94 90 83 78 76 71 69 63 63 59 58 58 58 56 56 54 53
68 69 73 80 81 85 83 89 95 102 106 112 118 124 127 128 126 130 130 129 129 130 130 130 128 127 127 123 117 114 106 104 101 97 89 83 79 74 72 71 67 63 62 62 60 60 58 58 56
65 74 81 84 87 95 96 87 95 106 115 118 124 128 134 135 134 133 135 135 132 133 133 134 134 130 128 122 119 117 117 112 106 101 99 92 88 83 79 75 70 68 67 64 63 63 62 62 61
78 82 85 89 90 94 103 94 100 105 114 123 128 133 134 133 132 128 126 124 120 113 113 120 133 136 135 129 120 115 115 115 114 110 106 100 95 90 83 79 74 73 69 66 65 65 66 63 62

GFSSGP_250_spd_024.txt.gz
Wind_Speed
27 26 24 21 20 21 21 18 18 18 18 19 16 17 18 18 19 20 21 23 25 27 28 30 31 32 33 35 36 39 40 43 47 52 53 49 45 43 43 44 42 38 31 26 25 20 19 19 20
27 26 27 24 24 23 27 25 23 23 22 23 21 20 21 21 22 24 25 25 27 29 31 33 33 33 34 36 39 39 40 42 46 50 53 49 47 46 44 46 47 44 38 29 25 24 22 20 18
28 26 26 25 25 27 27 28 28 27 28 28 28 27 27 28 27 26 27 30 29 31 33 35 36 36 35 38 40 39 41 42 45 48 52 50 49 48 46 45 48 50 43 36 28 24 21 21 21
29 30 27 28 26 27 30 31 30 32 32 32 33 32 32 32 33 32 32 30 31 32 33 34 36 36 37 40 41 40 42 42 45 47 51 49 49 49 48 47 48 49 47 41 33 27 21 18 19
36 31 32 30 29 29 30 32 32 34 34 36 36 36 36 35 36 36 35 34 34 35 33 35 37 38 39 42 42 41 41 42 46 48 50 47 47 49 49 49 49 50 49 43 37 30 27 20 18
42 39 36 31 32 33 34 34 34 36 37 38 39 40 39 39 39 39 39 38 39 37 36 36 37 38 41 43 42 40 40 43 44 48 48 46 46 48 49 50 49 50 50 46 43 35 30 27 21
47 42 40 40 37 37 38 39 38 39 41 42 43 42 41 42 42 42 42 40 39 38 37 37 38 39 43 44 44 41 39 43 47 45 46 46 46 46 48 48 50 50 51 49 46 44 37 34 25
50 50 46 45 43 41 43 44 46 46 46 47 46 44 43 47 44 44 43 42 42 40 39 41 43 43 46 47 44 42 40 41 46 47 43 45 46 47 47 48 48 49 51 50 48 45 43 41 34
55 54 51 47 49 46 47 50 50 50 49 48 46 44 45 45 47 47 46 45 46 46 46 44 48 47 51 51 48 41 40 44 43 45 45 44 46 46 47 48 48 48 49 48 50 49 45 42 40
56 57 55 50 47 50 50 52 52 49 48 48 47 46 47 47 50 50 51 50 49 50 50 50 48 52 52 49 43 40 42 45 45 45 44 47 46 46 47 48 48 47 48 46 47 49 48 44 42
56 56 55 54 51 49 51 52 54 53 51 49 49 48 48 53 53 52 53 54 53 51 53 53 52 52 53 51 46 43 45 46 47 47 46 47 46 46 47 48 49 46 46 47 46 48 48 45 41
55 55 56 54 50 50 51 54 54 55 56 52 50 51 52 55 55 57 56 57 57 58 56 54 54 55 56 53 50 46 49 48 49 49 49 49 48 47 48 49 50 46 45 46 47 48 47 45 42
58 57 55 55 56 55 55 57 58 60 57 56 55 53 53 56 61 58 60 61 61 60 56 58 54 52 52 49 51 51 51 53 52 53 51 50 50 48 47 48 51 46 44 45 48 48 47 45 42
60 61 61 60 59 59 59 61 60 63 62 61 59 58 57 57 59 62 63 62 62 62 59 60 60 59 59 57 56 57 54 57 55 55 53 52 52 50 49 48 50 46 43 45 50 48 47 47 46
60 61 62 64 64 62 62 63 65 65 64 66 64 63 62 63 63 64 67 66 63 63 65 64 66 68 64 62 60 59 58 58 58 56 56 54 53 51 50 48 50 48 44 45 50 49 47 48 48
61 62 64 65 65 63 62 61 69 67 65 66 68 64 65 65 65 66 68 66 67 66 66 65 65 69 73 67 65 61 63 59 60 58 59 57 54 53 52 50 50 49 47 46 52 50 49 49 50
61 62 63 66 65 63 62 61 66 68 66 66 66 68 66 67 69 69 69 67 67 69 70 70 68 66 71 72 66 64 66 65 64 61 60 59 58 56 53 52 50 50 49 50 53 52 51 50 51
60 60 64 66 67 63 64 62 65 70 68 68 70 71 72 73 71 68 70 72 73 72 74 74 74 71 69 75 73 68 67 70 68 64 62 63 63 63 57 54 52 53 53 53 54 54 53 53 51
56 58 59 63 64 62 63 60 65 69 72 72 72 73 76 78 79 78 79 81 82 80 79 82 83 82 78 75 79 77 71 71 70 68 66 67 68 66 60 56 56 57 57 56 56 53 53 53 50
53 55 56 58 61 61 62 62 66 69 71 74 75 77 80 81 83 83 85 88 89 90 89 89 91 90 90 86 83 87 82 77 76 74 72 73 72 70 64 60 59 59 59 58 56 54 54 54 47
51 51 55 56 60 64 63 67 72 72 71 73 77 81 84 85 86 86 87 89 90 92 93 94 96 97 96 96 91 87 92 86 80 79 80 78 73 71 68 64 62 62 61 61 60 55 56 53 47
49 51 54 58 59 61 71 68 77 77 76 75 79 82 86 88 90 92 93 95 97 98 99 98 98 99 101 101 100 95 91 93 88 85 84 81 78 76 74 71 67 64 63 64 62 58 58 52 45
48 50 52 56 58 59 68 68 76 75 73 74 78 80 82 85 89 91 95 97 102 103 103 105 105 106 106 106 106 103 96 94 96 91 89 87 85 82 78 75 71 68 68 68 63 60 60 50 44
51 53 55 57 58 60 65 66 75 79 77 77 80 85 87 89 91 95 99 103 105 108 109 110 111 110 110 109 110 109 106 101 98 99 93 91 89 87 82 80 77 72 68 67 63 63 59 50 44
49 53 57 62 64 67 71 75 80 81 83 83 83 85 87 92 95 96 99 106 109 112 114 116 118 118 119 118 117 115 112 108 101 101 99 94 92 90 85 83 80 74 69 69 66 64 56 50 48
52 54 59 61 65 67 70 73 86 84 88 91 95 98 101 104 105 104 105 108 112 117 120 125 126 126 127 127 126 125 122 118 113 109 105 94 91 91 90 85 81 76 75 72 65 60 54 52 50
59 63 65 62 64 66 69 77 85 84 89 93 98 105 110 114 117 116 118 121 122 124 126 129 133 132 133 135 133 131 130 127 124 117 113 108 98 88 88 88 82 76 75 69 63 57 54 54 53
71 76 73 73 76 79 75 78 87 94 98 102 106 112 115 120 122 122 126 128 130 131 133 136 139 141 142 137 135 132 132 129 128 122 114 112 108 100 95 89 81 74 70 68 64 60 58 58 57
78 83 81 83 87 92 90 81 87 95 99 101 104 110 115 119 120 122 124 129 135 137 135 130 126 128 134 142 143 135 135 130 125 123 115 107 106 102 97 97 89 76 74 73 69 66 65 63 62
86 90 90 93 95 96 102 83 92 95 98 101 103 105 106 110 111 118 121 120 123 125 125 124 121 114 114 116 114 125 127 129 127 119 118 109 104 101 95 98 95 84 82 79 76 73 69 68 65

GFSSGP_250_spd_030.txt.gz
Wind_Speed
26 24 23 20 19 18 17 17 16 15 14 14 16 18 17 19 20 22 22 24 24 24 26 28 28 29 30 32 32 33 34 35 37 39 41 42 45 43 45 42 42 37 36 37 36 34 26 19 16
27 28 26 24 21 21 21 22 19 20 21 22 22 24 22 24 26 27 26 26 26 29 28 28 29 30 31 32 33 34 34 34 37 39 40 42 45 43 45 42 43 35 36 35 35 34 32 26 22
28 27 27 28 28 25 26 26 25 25 24 25 26 29 29 28 28 31 31 29 30 31 31 31 31 31 32 33 34 34 35 36 37 40 40 42 45 40 44 42 42 37 34 36 34 34 33 30 25
32 29 28 29 29 29 26 29 27 25 25 26 27 28 30 30 30 33 35 34 33 34 34 34 34 33 35 35 35 36 37 37 38 41 42 41 44 40 41 41 42 40 35 37 37 34 33 29 25
34 32 30 30 31 30 28 28 25 27 26 26 29 31 32 33 35 35 39 38 38 39 40 39 39 39 39 38 38 38 38 39 40 41 42 44 40 38 41 39 41 40 37 36 38 37 35 32 27
35 33 32 32 31 31 32 32 31 30 29 29 30 33 38 38 39 39 42 45 45 45 45 45 44 44 44 44 43 42 43 43 44 43 44 45 38 38 43 40 39 38 37 36 36 38 38 34 32
37 36 35 34 37 35 37 36 37 36 36 38 39 35 41 45 43 44 45 48 49 50 49 48 49 49 49 46 46 46 46 47 45 45 45 44 44 40 41 41 38 36 36 35 35 36 38 38 34
43 40 39 40 40 39 42 44 47 48 45 46 42 46 45 48 49 47 47 49 50 50 50 49 50 50 50 49 47 48 48 48 47 46 46 46 45 44 40 39 38 36 33 35 34 36 37 38 36
48 45 44 45 44 44 46 48 49 51 52 51 48 51 52 51 51 52 50 50 52 52 53 53 51 50 52 53 52 50 50 49 48 49 49 46 45 44 39 38 40 39 35 34 34 34 35 37 38
52 49 49 48 49 49 48 52 54 55 54 56 56 53 53 52 51 51 51 50 53 55 55 54 52 52 53 54 54 53 52 52 50 51 51 48 44 42 39 38 41 42 38 35 35 32 34 36 38
55 53 53 51 53 52 54 56 57 59 56 59 59 57 57 53 51 53 54 55 55 55 56 56 55 55 54 52 53 54 53 52 53 51 52 49 45 43 43 42 45 44 42 38 36 34 33 36 37
54 54 55 55 55 56 57 58 60 60 61 63 63 61 59 59 61 59 59 59 59 58 58 59 58 58 57 56 53 54 56 55 54 54 54 54 55 51 50 48 46 46 44 41 39 38 34 36 37
55 55 54 55 55 57 59 60 62 61 63 64 66 64 61 61 63 64 64 65 63 62 61 63 62 60 61 63 60 59 57 57 57 57 57 58 59 57 54 52 50 48 46 44 42 39 38 36 39
55 57 58 59 59 61 64 66 66 65 68 70 71 68 67 66 66 67 69 71 71 69 67 65 65 65 63 67 68 66 64 61 61 62 60 59 59 59 57 55 52 50 49 48 46 42 40 36 40
53 57 58 59 60 60 66 69 67 68 69 71 70 68 68 69 70 71 72 73 73 72 70 68 67 67 66 66 68 71 70 68 65 64 64 64 63 62 60 58 57 55 52 51 49 47 43 38 39
55 59 59 58 60 63 67 70 66 66 69 73 72 73 74 74 74 74 74 76 76 76 74 73 73 73 73 71 69 69 71 72 72 70 69 68 67 66 63 62 62 60 58 55 53 51 48 44 42
57 60 61 61 61 65 67 73 69 70 70 72 72 73 74 76 77 78 79 80 81 81 80 78 77 76 75 75 76 74 73 73 73 74 74 73 71 69 67 66 67 64 61 59 56 54 52 51 49
56 59 61 62 61 64 65 66 67 69 69 70 73 74 75 75 75 76 77 78 80 81 82 82 83 84 82 81 80 79 79 80 80 79 80 79 76 75 73 71 72 68 66 64 61 57 56 57 53
56 59 61 62 60 59 60 56 61 65 66 64 63 66 69 72 75 77 80 82 84 85 86 87 87 87 87 86 85 85 85 84 84 85 85 85 85 84 82 80 77 75 72 70 66 64 62 62 59
50 49 49 46 45 45 49 47 49 51 52 54 57 60 63 67 71 75 78 82 84 86 88 89 90 90 91 92 92 91 90 91 90 89 89 90 89 90 88 85 83 81 79 77 74 72 69 66 64
28 29 27 26 29 30 33 31 31 34 41 46 50 55 59 63 69 74 79 84 87 90 93 94 94 94 94 94 95 95 94 93 95 96 95 94 94 94 93 90 88 86 84 81 78 75 73 70 67
14 17 17 20 26 33 33 34 39 42 46 52 54 56 58 61 66 72 78 82 84 87 90 94 97 101 102 103 102 102 101 100 98 97 97 97 97 97 98 96 93 90 87 86 83 80 76 73 71
21 22 22 28 32 35 37 40 44 50 53 57 61 62 64 64 65 67 72 77 85 93 96 98 100 104 107 108 108 109 109 108 107 105 102 102 102 103 101 101 98 94 92 91 88 85 81 77 74
23 28 30 35 40 45 50 50 53 58 62 66 67 70 73 76 77 78 79 80 81 86 94 101 106 110 112 115 117 119 117 115 113 110 110 109 107 106 105 103 104 102 96 93 92 89 85 82 78
29 33 38 42 46 52 57 58 63 68 71 74 77 79 82 85 87 88 89 87 89 91 93 97 100 105 113 117 121 125 128 128 124 122 119 117 116 113 111 109 105 104 102 99 97 91 87 84 81
37 43 47 48 53 56 63 66 69 78 81 85 88 90 94 96 97 97 95 93 93 94 97 98 101 104 108 112 116 123 129 131 132 132 130 128 126 123 120 115 112 109 108 104 98 96 91 87 82
46 50 53 55 58 59 65 73 78 83 87 92 96 100 105 107 107 104 100 97 94 93 95 97 99 103 108 110 115 121 125 127 128 130 133 133 132 129 125 124 120 117 113 111 106 98 91 88 85
53 56 58 62 66 67 73 77 84 86 92 97 103 109 114 113 110 107 104 101 100 99 99 100 101 101 105 109 111 116 121 126 127 128 130 131 132 130 129 124 122 123 121 118 115 106 98 90 84
58 62 66 71 76 80 80 82 89 96 99 105 109 116 121 119 112 109 105 102 102 101 100 100 102 103 104 104 101 105 108 114 119 123 125 127 128 128 126 122 118 117 119 123 121 114 106 97 89
66 70 74 77 80 86 88 85 94 99 103 110 117 121 120 116 111 107 103 102 101 99 96 94 95 97 98 98 99 101 101 101 101 104 106 111 112 119 122 121 117 111 109 114 120 120 111 106 97